Weather History for Grand Rapids, MI

Change the Weather History Date:

Tuesday, November 20, 2012

  Actual Average Record
Temperature  
Mean Temperature 47 °F 38 °F  
Max Temperature 54 °F 45 °F 71 °F (1930)
Min Temperature 39 °F 32 °F 13 °F (1969)
Degree Days  
Heating Degree Days 18 27  
Month to date heating degree days 468 457  
Since 1 July heating degree days 1038 1049  
Cooling Degree Days 0 0  
Month to date cooling degree days 0 0  
Year to date cooling degree days 1039 699  
Moisture  
Dew Point 37 °F    
Average Humidity 68    
Maximum Humidity 76    
Minimum Humidity 59    
Precipitation  
Precipitation T in 0.12 in 1.27 in (1981)
Month to date precipitation 0.33 2.41  
Year to date precipitation 30.84 34.67  
Snow  
Snow 0.00 in 0.30 in 11.50 in (2000)
Month to date snowfall 0.1 3.3  
Since 1 July snowfall 0.1 3.8  
Since 1 September snowfall 0.1 3.8  
Snow Depth 0.00 in    
Sea Level Pressure  
Sea Level Pressure 30.13 in    
Wind  
Wind Speed 4 mph (SSE)    
Max Wind Speed 9 mph    
Max Gust Speed 10 mph    
Visibility 8 miles    
Events      
T = Trace of Precipitation, MM = Missing Value Source: NWS Daily Summary

Daily Weather History Graph

Daily Weather History Graph

Search for Another Location

Airport:

Trip Planner

Search our weather history database for the weather conditions in past years. The results will help you decide how hot, cold, wet, or windy it might be!

Date:

Astronomy

Nov. 20, 2012 Rise Set
Actual Time 7:41 AM EST 5:14 PM EST
Civil Twilight 7:10 AM EST 5:45 PM EST
Nautical Twilight 6:35 AM EST 6:19 PM EST
Astronomical Twilight 6:01 AM EST 6:53 PM EST
Moon 1:09 PM EST (11/20) No Moon Set
Length of Visible Light 10h 35m
Length of Day
9h 33m
Waxing Crescent, 51% of the Moon is Illuminated
Nov 20
Waxing Crescent
Nov 28
Full
Dec 6
Last Quarter
Dec 13
New
Dec 20
First Quarter

Hourly Weather History & Observations

Time (EST) Temp. Windchill Dew Point Humidity Pressure Visibility Wind Dir Wind Speed Gust Speed Precip Events Conditions
12:53 AM 41.0 °F 37.1 °F 32.0 °F 70% 30.15 in 10.0 mi SSE 5.8 mph - N/A   Clear
1:53 AM 41.0 °F 36.4 °F 33.1 °F 73% 30.14 in 10.0 mi SSE 6.9 mph - N/A   Clear
2:53 AM 39.9 °F 35.1 °F 32.0 °F 73% 30.14 in 10.0 mi SSE 6.9 mph - N/A   Clear
3:53 AM 42.1 °F 37.1 °F 34.0 °F 73% 30.13 in 10.0 mi SSE 8.1 mph - N/A   Overcast
4:53 AM 43.0 °F 39.5 °F 34.0 °F 71% 30.12 in 10.0 mi South 5.8 mph - N/A   Scattered Clouds
5:53 AM 43.0 °F - 34.0 °F 71% 30.12 in 9.0 mi Calm Calm - N/A   Overcast
6:53 AM 43.0 °F 39.5 °F 35.1 °F 74% 30.12 in 8.0 mi SSE 5.8 mph - N/A   Overcast
7:53 AM 44.1 °F 41.5 °F 35.1 °F 71% 30.13 in 8.0 mi South 4.6 mph - N/A   Overcast
8:53 AM 46.0 °F 43.9 °F 37.0 °F 71% 30.13 in 6.0 mi ESE 4.6 mph - N/A   Haze
9:53 AM 46.9 °F - 37.0 °F 68% 30.13 in 6.0 mi SSE 6.9 mph - 0.00 in   Haze
10:53 AM 48.9 °F - 37.0 °F 64% 30.13 in 6.0 mi South 6.9 mph - N/A   Haze
11:53 AM 50.0 °F - 37.9 °F 63% 30.12 in 6.0 mi SSE 4.6 mph - N/A   Haze
12:53 PM 51.1 °F - 39.0 °F 63% 30.10 in 7.0 mi SE 3.5 mph - N/A   Overcast
1:53 PM 53.1 °F - 39.0 °F 59% 30.09 in 8.0 mi South 6.9 mph - N/A   Overcast
2:53 PM 54.0 °F - 39.0 °F 57% 30.10 in 10.0 mi SW 3.5 mph - N/A   Overcast
3:53 PM 53.1 °F - 39.9 °F 61% 30.11 in 8.0 mi Calm Calm - N/A   Overcast
4:53 PM 52.0 °F - 41.0 °F 66% 30.12 in 7.0 mi Calm Calm - N/A   Overcast
5:53 PM 52.0 °F - 39.0 °F 61% 30.13 in 9.0 mi Calm Calm - N/A   Overcast
6:53 PM 48.9 °F - 39.0 °F 69% 30.14 in 8.0 mi Calm Calm - N/A   Overcast
7:53 PM 48.9 °F - 39.9 °F 71% 30.15 in 8.0 mi Calm Calm - N/A   Overcast
8:53 PM 48.9 °F - 39.9 °F 71% 30.16 in 7.0 mi Calm Calm - N/A   Overcast
9:53 PM 48.9 °F - 39.9 °F 71% 30.17 in 9.0 mi Calm Calm - N/A   Overcast
10:53 PM 50.0 °F - 39.9 °F 68% 30.17 in 7.0 mi WNW 3.5 mph - N/A   Overcast
11:53 PM 48.0 °F - 41.0 °F 77% 30.17 in 6.0 mi Calm Calm - N/A   Haze